星链-5275 (STARLINK-5275 )

导读 | 豆包AI

STARLINK-5275是由美国发射的SpaceX星链卫星,于2023年1月31日发射入轨,隶属于星链互联网星座项目。星链项目旨在构建全球卫星互联网,为全球偏远、欠发达地区及地面网络无法覆盖区域提供高速网络接入服务,该卫星的发射进一步扩充了星链星座的规模,推进了全球卫星互联网络的组网进程。

基本信息
目录编号:
55398
目录名称:
STARLINK-5275
国际标识:
2023-014H
轨道中心:
EARTH
卫星名称:
星链-5275
卫星全名:
星链-5275 (STARLINK-5275 )
卫星状态:
在轨 (已飞行1139 天)
发射日期:
2023-01-31 UTC
国别 :
美国 (US)
星等 :
--
轨道信息
数据来源 国际轨道数据
星历时间: 2026-03-15T14:42:28+0800
8小时前
查看轨道信息
半长轴: 6950.211km
偏心率: 0.0002942
轨道倾角: 70.000°
近地点辐角 266.652°
升交点赤经 50.325°
平近点角 93.430°
近地点: 570.029km
远地点: 574.119km
周期: 96.107分钟
每日圈数: 14.983242
详细信息
固有亮度:
5
最大亮度:
2.5
卫星平台:
Starlink v1.5
覆盖范围:
全球
运营商:
太空探索技术公司
运营商所在国:
美国
制造商(研发单位):
太空探索技术公司
制造商所在国:
美国
使用方式:
暂无
卫星简介
星链(Starlink)计划是由太空探索技术公司(SpaceX)提出的一个巨型低轨卫星互联网星座项目,计划在2019年至2024年间在太空搭建由约1.2万颗卫星组成的“星链”网络,其中1584颗将部署在地球上空550千米处的近地轨道,并从2020年开始工作。该卫星仍在工作。
2D轨道图
3D轨道图
轨道高度分析图
轨道倾角分析图
轨道综合分析图
查看轨道综合分析图